Location: Unspecified
(35.7250°N, 0.0000°E)
Time: 03:42:07
(UTC+00:00)

Vanguard 2 - Pass Details

Date: 25 June 2019
Orbit: 553 x 2938 km, 32.9° (Epoch: 18 July)

Event Time Altitude Azimuth Distance (km) Brightness Sun altitude
Rises 15:10:08 0° 263° (W) 5,185 12.5 47.8°
Reaches altitude 10° 15:16:05 10° 239° (WSW) 4,707 12.4 46.6°
Maximum altitude 15:21:35 13° 215° (SW) 4,813 12.1 45.5°
Drops below altitude 10° 15:27:50 10° 191° (SSW) 5,442 12.1 44.2°
Sets 15:36:16 0° 170° (S) 6,728 12.3 42.5°
